RH
96 83 72 78 75 75 80 78 74 78 81 80 79 77 78 76 77 78 76 76 75 73 72 70 66 64 66 74 76 71 76 78 78 81 84 78 73 72 74 77 78 77 70
85 82 79 79 78 79 81 80 79 81 82 81 77 76 74 75 75 73 71 68 67 66 66 68 70 70 69 74 73 71 72 68 65 74 86 86 82 74 74 75 76 77 72
83 80 78 80 80 81 84 82 82 82 82 82 73 75 74 74 72 70 67 67 65 64 64 63 64 65 65 63 62 62 62 67 71 72 85 89 84 72 75 76 76 77 74
79 78 77 81 80 82 85 81 82 80 83 81 75 75 74 72 70 67 66 66 67 67 66 65 64 64 63 60 57 62 66 79 78 84 90 84 72 71 71 72 74 76 79
80 78 77 82 81 83 84 82 82 85 81 77 78 74 71 69 67 68 67 68 69 68 67 66 67 69 70 67 62 66 78 84 86 88 94 93 91 71 71 76 75 75 76
83 79 82 82 82 84 84 84 80 80 79 78 75 71 68 66 68 68 69 70 70 68 68 66 70 71 73 70 64 78 81 86 90 96 96 89 89 75 76 75 76 72 72
86 82 82 83 83 84 85 84 86 81 79 75 72 70 67 68 69 69 70 70 67 68 66 68 69 74 72 72 76 79 83 87 95 96 94 90 83 74 72 73 72 71 71
86 86 81 83 84 85 88 86 84 81 76 73 70 68 68 69 69 70 69 68 67 65 64 68 68 72 70 76 79 80 82 84 90 93 86 86 76 69 69 71 70 69 69
88 84 85 85 86 90 87 89 86 77 75 71 70 71 72 71 70 69 69 67 66 63 66 67 73 72 75 78 79 82 84 85 94 91 84 92 76 68 66 67 63 60 63
92 76 85 88 91 84 87 88 83 80 77 77 77 78 78 78 75 69 71 66 63 64 67 67 75 75 78 79 82 85 87 88 95 94 90 84 71 68 67 63 58 62 62
93 90 93 92 85 84 82 82 84 83 82 82 86 87 87 93 88 79 76 72 68 69 71 71 75 76 80 84 85 87 89 97 94 95 96 77 68 67 60 60 61 62 62
93 95 95 89 86 83 80 94 95 90 96 95 92 90 93 92 91 83 80 75 73 74 69 72 75 80 86 98 97 91 98 95 80 81 88 70 62 61 60 62 62 62 63
91 94 96 88 85 87 96 98 97 95 94 88 84 80 84 88 94 91 84 79 76 74 83 82 79 80 89 95 98 97 95 92 96 93 80 70 62 61 62 62 63 63 63
96 94 94 88 89 92 96 96 96 91 92 84 74 68 83 83 84 76 72 71 72 81 86 85 82 82 84 89 93 94 93 94 95 92 86 75 64 61 61 61 62 62 62
97 96 94 89 91 92 96 98 92 89 85 85 67 63 69 72 73 69 69 70 75 81 86 86 81 79 83 79 75 81 91 93 92 93 95 79 71 63 61 61 60 61 62
97 97 98 93 90 88 95 94 85 86 82 80 67 64 64 68 67 65 66 67 70 79 86 86 81 80 81 80 76 74 83 89 91 88 88 88 73 66 60 60 60 60 60
98 96 98 97 91 88 88 83 77 75 73 72 64 63 64 64 62 65 65 64 65 73 81 85 88 86 83 72 81 76 75 82 81 81 81 78 78 72 60 57 58 58 59
97 97 96 95 95 86 79 75 73 72 70 66 64 66 60 59 61 64 64 64 65 68 76 83 82 89 88 80 80 78 80 78 82 82 75 76 74 71 65 55 54 54 54
96 95 96 97 96 88 70 70 71 66 64 65 67 64 59 60 61 64 67 67 65 66 70 64 68 71 77 85 80 84 80 79 79 71 79 74 73 68 76 58 56 54 53
96 95 96 98 98 95 76 61 70 70 68 66 65 62 60 61 59 65 67 68 66 67 65 63 64 70 66 66 66 79 91 86 80 82 81 70 77 67 71 72 70 65 51
98 98 97 97 98 98 95 91 67 74 71 68 65 60 60 59 60 64 69 67 65 63 61 62 68 66 72 75 70 71 74 79 88 86 83 81 76 74 74 72 78 77 70
96 98 98 96 97 96 95 96 93 86 72 71 67 62 62 62 63 62 66 68 65 67 65 66 65 74 76 76 72 76 69 68 74 80 93 84 84 83 79 74 78 77 76
98 98 96 95 95 93 90 94 93 88 77 73 69 68 65 63 65 64 65 70 68 70 72 70 72 67 76 80 72 68 74 61 76 71 85 92 89 92 90 88 82 78 79
98 95 94 92 94 94 93 94 90 83 87 76 69 70 68 66 67 69 70 69 70 74 76 76 73 78 76 77 82 71 73 68 67 55 70 79 78 74 83 89 89 87 87
98 98 96 94 93 95 94 92 94 93 91 97 81 68 68 69 68 69 70 72 77 78 77 78 81 78 73 79 77 76 76 79 80 69 63 69 73 72 80 80 80 80 78
99 99 98 97 96 94 94 92 91 92 93 96 94 86 71 71 74 73 73 75 79 79 81 79 77 77 77 76 78 77 77 75 79 74 79 82 82 74 82 85 85 86 83
Wind_Speed
10 17 25 23 23 22 20 21 19 17 16 18 18 17 16 15 14 14 13 12 12 11 11 11 10 9 11 12 12 11 11 11 11 11 11 10 13 13 13 12 8 6 11
18 19 25 24 23 22 19 20 19 16 14 16 17 16 15 14 13 12 12 12 11 11 11 11 10 9 9 9 9 10 10 9 9 9 9 8 9 12 11 10 9 8 10
18 18 21 24 23 22 20 20 19 18 17 17 18 16 15 14 13 12 12 12 11 11 10 10 10 10 9 8 9 9 9 9 8 9 10 5 5 11 11 11 12 11 11
17 17 18 24 23 23 21 21 19 19 19 18 16 16 15 14 13 13 12 12 11 11 11 10 10 11 10 10 11 11 11 12 14 11 5 5 5 13 12 13 15 15 16
16 16 17 24 24 22 21 20 20 18 19 17 16 15 14 14 13 13 12 12 12 11 11 11 11 11 11 11 12 13 14 14 13 8 6 5 5 10 14 16 16 17 17
14 14 19 24 23 21 20 19 20 21 20 18 17 16 15 14 14 14 13 13 12 11 11 12 12 10 9 12 15 15 14 14 11 6 6 6 5 16 18 17 17 16 18
13 12 15 23 23 21 21 19 19 19 19 18 17 16 15 15 15 14 13 13 12 12 12 13 13 11 17 17 17 16 15 14 7 6 5 5 8 18 19 18 18 18 18
12 11 14 20 22 22 21 20 18 18 18 17 17 16 16 15 15 15 14 13 13 13 13 14 13 13 16 18 17 16 14 13 8 6 6 5 14 17 16 18 17 16 17
9 13 12 13 16 19 19 19 17 18 18 16 16 16 15 15 15 15 14 14 14 14 15 15 14 17 17 17 17 15 14 13 7 5 6 4 16 16 16 17 15 15 14
9 13 13 13 12 12 13 17 16 16 16 15 14 13 12 12 13 14 13 14 15 16 15 15 18 18 16 16 15 14 13 12 6 5 4 5 16 16 16 14 14 14 13
8 9 10 11 11 10 12 12 15 16 15 15 13 13 9 5 6 9 8 12 14 16 17 14 19 17 16 14 14 13 11 4 5 4 3 13 16 15 13 13 15 13 13
16 11 10 12 11 12 8 8 7 8 7 6 7 8 5 5 5 6 7 10 14 14 14 16 19 16 11 5 5 9 4 4 6 5 4 12 13 11 12 14 13 13 14
3 11 9 12 12 12 8 7 5 5 5 5 7 6 5 4 4 4 3 4 4 8 4 6 7 5 7 5 4 4 5 7 4 4 7 12 12 13 14 14 14 14 14
8 8 12 15 12 9 6 6 7 6 5 5 5 7 5 3 4 4 4 4 4 3 5 5 4 6 7 7 6 6 6 5 3 3 6 10 13 13 13 13 13 13 14
7 11 13 14 14 11 8 5 6 6 5 5 5 6 5 5 4 4 4 4 4 4 5 5 5 6 6 6 5 6 6 6 6 3 3 11 11 13 13 13 13 12 13
14 12 5 15 15 14 9 9 6 5 6 5 4 5 6 5 5 4 4 4 4 3 4 5 5 5 5 5 6 5 6 5 5 6 4 5 11 11 12 12 11 11 11
8 3 14 8 15 17 12 9 7 7 6 5 5 6 6 5 6 6 5 4 4 3 6 5 5 5 5 4 6 5 5 5 5 5 4 4 5 10 11 11 11 11 11
12 13 15 17 10 14 14 8 6 5 4 4 4 4 6 6 7 5 5 4 4 4 4 5 4 4 4 4 3 3 4 4 4 5 4 3 3 3 6 10 10 10 9
12 15 19 19 18 9 10 8 6 6 5 4 4 4 6 6 6 6 5 5 5 4 4 4 3 3 3 3 4 3 2 3 3 2 4 4 3 3 2 6 8 8 8
10 15 21 16 14 14 7 9 5 4 4 4 4 4 6 5 6 6 5 5 5 4 4 3 4 4 3 3 3 3 2 1 1 1 2 2 2 3 2 2 3 2 4
7 10 16 24 21 10 4 3 3 3 3 3 2 6 6 5 5 6 4 5 5 5 5 5 4 5 3 1 4 2 2 1 1 1 1 1 2 2 2 1 1 0 2
8 10 11 13 19 16 9 5 3 4 2 2 1 4 6 7 6 6 6 5 6 5 5 4 4 3 3 1 3 2 1 2 1 1 1 2 3 1 2 2 2 2 1
10 11 12 15 16 16 16 12 5 7 4 2 1 2 4 6 6 7 7 6 6 5 5 5 5 6 4 1 2 4 3 3 1 2 1 0 1 1 2 2 4 4 3
6 9 12 13 14 10 13 12 13 10 6 4 4 3 4 5 5 6 7 6 6 5 6 5 5 4 5 4 2 2 3 3 3 1 1 2 2 3 3 2 3 3 3
5 6 9 12 12 12 11 11 9 9 5 2 2 5 4 6 6 6 6 5 4 3 5 7 7 7 4 5 2 3 1 2 1 3 2 2 3 0 1 0 2 2 1
4 6 8 12 11 13 12 12 13 14 13 9 5 3 3 3 4 4 5 5 4 4 2 2 2 3 4 5 4 4 4 4 3 2 2 1 2 2 1 1 1 1 1
Wind_Direction
177 172 174 172 167 165 163 150 152 148 142 137 132 129 124 120 113 111 110 105 105 107 108 107 109 111 104 92 91 101 96 92 83 72 68 78 93 92 87 81 80 80 81
150 166 169 170 169 167 161 152 150 150 148 138 135 136 134 128 124 118 114 112 110 108 109 111 114 117 117 105 103 99 96 88 85 80 68 63 89 88 84 79 62 81 82
156 163 166 169 168 169 157 152 152 153 158 150 143 139 136 129 123 118 115 111 109 107 109 112 115 115 116 114 109 103 94 82 100 92 71 58 85 85 81 75 65 63 68
158 161 164 168 168 169 157 157 157 159 154 144 140 140 135 130 125 122 118 115 110 109 108 107 110 111 111 111 113 111 97 94 100 90 73 59 62 84 82 78 73 68 69
164 163 165 167 168 166 157 162 160 159 146 143 142 140 136 133 128 124 122 120 115 115 115 113 112 112 110 113 115 110 100 94 90 84 77 73 64 89 85 79 74 70 69
164 165 168 165 166 163 159 162 162 152 146 147 144 141 138 138 131 128 127 121 119 119 116 114 112 101 113 121 113 104 96 90 83 74 68 77 82 96 88 77 70 71 63
159 163 168 166 164 161 160 164 149 146 148 146 146 143 143 140 133 132 129 126 124 120 120 120 108 104 105 110 109 101 92 85 76 65 68 79 96 89 86 77 69 66 61
156 159 166 170 163 164 161 151 141 151 147 148 147 147 146 141 138 134 133 128 126 124 126 122 109 119 114 108 104 97 88 82 69 64 53 59 91 84 81 75 66 58 53
154 159 167 171 169 156 144 131 145 153 146 150 150 150 144 141 139 137 133 130 127 127 129 114 119 118 115 108 102 95 89 84 73 59 62 58 85 85 80 70 63 57 56
152 171 174 168 154 146 129 136 145 146 143 147 144 134 131 134 134 133 130 129 127 130 121 120 115 114 108 103 98 94 87 78 73 64 60 76 89 82 75 72 66 62 59
167 179 159 150 144 136 130 138 139 138 137 130 111 100 92 83 93 97 123 126 130 127 113 118 111 108 99 92 90 89 84 66 71 59 58 78 80 77 76 72 69 67 65
176 185 170 150 136 128 132 120 116 111 102 101 103 105 100 102 112 111 114 133 127 114 116 126 114 103 89 71 68 76 63 61 59 48 46 79 85 83 82 78 77 70 62
192 184 168 138 141 130 135 126 117 113 115 110 112 112 114 104 85 89 77 67 76 85 63 90 98 85 87 90 76 67 60 62 57 40 56 77 85 88 85 83 76 71 67
307 292 150 144 133 128 133 134 129 126 123 123 127 126 118 112 110 108 105 100 100 102 106 103 99 103 89 84 91 79 67 68 57 51 47 73 89 92 91 85 83 75 68
308 349 160 150 137 136 128 123 122 127 133 132 127 132 127 127 127 120 118 112 108 113 115 108 110 105 99 93 81 92 83 81 74 57 39 63 79 85 83 80 76 75 71
36 14 338 163 144 140 143 143 138 128 130 127 131 139 139 133 133 125 119 114 105 115 111 111 118 111 103 107 94 88 95 83 81 77 58 41 66 80 85 81 76 73 71
124 63 31 331 154 143 146 140 144 145 137 135 141 142 141 140 142 133 124 114 114 115 109 98 90 95 98 96 105 107 108 104 99 89 77 65 46 49 78 78 72 64 61
146 101 71 40 305 147 139 130 131 122 125 130 134 138 146 145 137 128 123 125 129 122 118 108 108 85 101 113 121 122 117 114 118 111 105 91 77 53 53 80 76 72 63
132 113 88 68 27 35 86 100 104 113 112 126 129 137 146 143 140 128 125 127 127 116 104 122 84 110 104 106 120 114 128 137 144 131 130 121 110 100 73 75 71 59 57
154 131 110 104 77 37 34 67 58 69 79 105 130 137 141 136 136 127 126 131 132 120 115 108 115 71 120 125 108 96 79 82 128 181 174 145 145 128 110 86 56 20 45
138 135 137 128 129 121 19 10 65 59 49 71 120 133 134 129 130 127 120 125 132 129 143 139 111 106 72 98 111 56 36 60 188 227 207 195 183 188 158 173 149 98 5
145 124 119 136 134 141 143 161 133 85 59 79 126 124 139 138 145 141 141 143 140 125 128 135 128 118 101 101 126 108 79 354 27 281 245 232 229 197 213 224 234 236 227
153 149 151 152 147 159 158 138 146 103 82 81 81 122 148 151 157 150 151 148 148 139 150 151 144 140 135 71 101 140 122 210 350 33 346 226 147 200 251 253 252 249 228
162 157 156 154 158 156 159 150 172 148 152 179 173 169 149 160 162 158 155 159 159 154 152 158 153 144 123 137 116 68 74 138 151 34 356 274 196 194 221 227 230 244 245
150 151 155 154 166 158 164 148 145 143 155 98 101 166 170 163 171 171 158 160 155 171 165 157 153 152 134 136 151 136 115 74 81 135 211 307 334 329 241 285 307 306 300
164 158 156 159 163 160 157 153 161 159 168 161 170 194 169 151 154 177 144 136 119 103 114 119 94 134 143 133 132 160 169 153 184 174 132 219 273 300 295 264 287 334 318